AirNav   Phillips 66 Aviation Fuel
 
 351 users online  

K50 Cook Airfield
Rose Hill, Kansas, USA

GOING TO ROSE HILL?


FAA INFORMATION EFFECTIVE 13 SEPTEMBER 2018

Location

FAA Identifier: K50
Lat/Long: 37-33-58.8109N / 097-10-28.2667W
37-33.980182N / 097-10.471112W
37.5663364 / -97.1745185
(estimated)
Elevation: 1345 ft. / 410 m (estimated)
Variation: 07E (1985)
From city: 2 miles W of ROSE HILL, KS
Time zone: UTC -5 (UTC -6 during Standard Time)
Zip code: 67037

Airport Operations

Airport use: Open to the public
Activation date: 03/1960
Control tower: no
ARTCC: KANSAS CITY CENTER
FSS: WICHITA FLIGHT SERVICE STATION
NOTAMs facility: ICT (NOTAM-D service available)
Attendance: UNATNDD
Wind indicator: lighted
Segmented circle: no
Lights: ACTVT MIRL RWY 17/35 AND PAPI RWY 17-123.5

Airport Communications

CTAF/UNICOM: 122.8
WX AWOS-3PT at 3AU (8 nm NE): 124.175 (316-733-6696)
WX AWOS-3PT at BEC (8 nm N): 119.45 (316-515-7116)
WX ASOS at AAO (11 nm N): 134.025 (316-636-2541)
WX AWOS-3 at 1K1 (13 nm N): 118.3 (316-530-6004)
WX ASOS at ICT (13 nm W): PHONE 316-945-8022
WX AWOS-3 at EGT (18 nm SW): 118.875 (620-326-2470)

Nearby radio navigation aids

VOR radial/distance  VOR name  Freq  Var
ICTr112/22.2WICHITA VORTAC113.8007E

 
NDB name  Hdg/Dist  Freq  Var  ID
PICHE089/13.433204EIC .. -.-.
NEWTON165/30.228106EEWK . .-- -.-

Airport Services

Fuel available: 100LL
SELF-SVC FUEL AVBL 24 HRS.
Parking: tiedowns
Airframe service: NONE
Powerplant service: NONE
Bottled oxygen: NONE
Bulk oxygen: NONE

Runway Information

Runway 17/35

Dimensions: 2507 x 40 ft. / 764 x 12 m
Surface: asphalt, in good condition
Weight bearing capacity: 
Single wheel: 2.0
Runway edge lights: medium intensity
RUNWAY 17  RUNWAY 35
Latitude: 37-34.201667N37-33.788500N
Longitude: 097-10.496333W097-10.496667W
Elevation: 1334.0 ft.1340.0 ft.
Traffic pattern: leftleft
Displaced threshold: no153 ft.
Markings: basic, in good conditionbasic, in good condition
Visual slope indicator: 2-light PAPI on left (4.00 degrees glide path)
Obstructions: 24 ft. trees, 330 ft. from runway, 65 ft. right of centerline, 5:1 slope to clear
12 FT TREE 120 FT FM THLD 55 FT RIGHT OF CNTRLN AND 6 FT TREE 180 FT FM THLD 80 FT LEFT OF CNTRLN.
none
RY 35 +15 FT ROAD AT 100 FT.

Runway 1/19

Dimensions: 1600 x 50 ft. / 488 x 15 m
Surface: turf, in good condition
Runway edge markings: MKD WITH ORANGE CONES.
Gradient: S
RUNWAY 1  RUNWAY 19
Latitude: 37-33.833000N37-34.080667N
Longitude: 097-10.488000W097-10.374667W
Elevation: 1340.0 ft.1325.0 ft.
Gradient: 0.9% UP
Traffic pattern: leftleft
Obstructions: 15 ft. road, 230 ft. from runway, 15:1 slope to clear63 ft. tree, 655 ft. from runway, 10:1 slope to clear

Airport Ownership and Management from official FAA records

Ownership: Privately-owned
Owner: CROSSWIND AVAITION INC.
P.O. BOX 574
ROSE HILL, KS 67133
Phone 316-706-6131
Manager: STEVE LOGUE
6841 S.143RD
DERBY, KS 67037
Phone 316-706-6131
CO-MANAGER PHONE 316-650-6581.

Airport Operational Statistics

Aircraft based on the field: 72
Single engine airplanes: 67
Multi engine airplanes: 3
Ultralights: 2
    
Aircraft operations: avg 28/day *
98% local general aviation
2% transient general aviation
* for 12-month period ending 22 September 2016

Instrument Procedures

There are no published instrument procedures at K50.

Some nearby airports with instrument procedures:

KIAB - Mc Connell Air Force Base (6 nm NW)
KCEA - Cessna Aircraft Field Airport (6 nm NW)
3AU - Augusta Municipal Airport (8 nm NE)
KBEC - Beech Factory Airport (8 nm N)
KAAO - Colonel James Jabara Airport (11 nm N)
1K1 - Lloyd Stearman Field Airport (13 nm N)
KICT - Wichita Dwight D Eisenhower National Airport (13 nm W)
KEGT - Wellington Municipal Airport (18 nm SW)
 
Loc | Ops | Rwys | IFR | FBO | Links
Com | Nav | Svcs | Stats | Notes

Kansas City Aviation Department
 
Area around K50 (Cook Airfield)
 
Road maps at: MapQuest Bing Google
 
Aerial photo
WARNING: Photo may not be current or correct
Aerial photo of K50 (Cook Airfield)
Taken in 2017
looking south.

Do you have a better or more recent aerial photo of Cook Airfield that you would like to share? If so, please send us your photo.

 
Sectional chart

 
Airport distance calculator
Flying to Cook Airfield? Find the distance to fly.

From to K50

Sunrise and sunset
Times for 24-Sep-2018
 Local
(UTC-5)
 Zulu
(UTC)
Morning civil twilight06:5311:53
Sunrise07:1912:19
Sunset19:2200:22
Evening civil twilight19:4800:48

Current date and time
Zulu (UTC)  24-Sep-2018 10:01:11
Local (UTC-5)  24-Sep-2018 05:01:11
 
METAR
KIAB 
5nm NW 
240956Z AUTO 19005KT 7SM OVC004 17/16 A2993 RMK AO2 SLP127 T01690164 $
K3AU 
8nm NE 
240955Z AUTO 00000KT 7SM OVC014 15/15 A2993 RMK AO2
KBEC 
8nm N 
240955Z AUTO 18003KT 4SM BR BKN004 OVC012 16/16 A2993 RMK AO2 T01600156
KAAO 
11nm N 
240954Z AUTO 17004KT 5SM BR BKN005 OVC013 16/16 A2993 RMK AO2 SLP125 T01610161
K1K1 
13nm N 
240955Z AUTO 00000KT 7SM SCT002 OVC013 16/16 A2994 RMK AO2 T01550155
KICT 
13nm W 
240953Z 18004KT 5SM BR SCT005 BKN010 OVC015 17/17 A2992 RMK AO2 SLP121 T01720172
TAF
KIAB 
5nm NW 
240200Z 2402/2508 15006KT 9999 SKC QNH2990INS BECMG 2407/2408 15006KT 8000 BR BKN010 QNH2986INS TEMPO 2410/2414 4800 BR BKN005 BECMG 2416/2417 17012KT 9999 NSW SKC QNH2979INS BECMG 2503/2504 17006KT 9999 BKN020 QNH2983INS TX27/2421Z TN13/2411Z
KICT 
13nm W 
240741Z 2408/2506 13009KT 4SM BR SCT009 BKN015 TEMPO 2408/2412 1SM BR BKN009 FM241600 18011KT P6SM SCT009 SCT015 FM241700 18009KT P6SM SCT080 FM242000 18013KT P6SM SCT250
NOTAMs
Click for the latest NOTAMs
NOTAMs are issued by the DoD/FAA and will open in a separate window not controlled by AirNav.

 

 
 

FBO, Fuel Providers, and Aircraft Ground Support

  
 Business Name 
 
 Contact 
 
 Services / Description 
 
Fuel Prices
 
Comments
  
Crosswinds Aviation, Inc. 316-706-6131
316-650-6581
[web site]
[email]
Airport management, Aviation fuel, Aircraft parking (ramp or tiedown), Hangars, Skydiving, Flying club, Courtesy transportation, Restrooms, Residence

More info about Crosswinds Aviation, Inc.
Avfuel
100LL Mogas
SS $4.59 $3.39 
GUARANTEED
 
   1 read write
SS=Self service
Update Fuel Prices
 

Would you like to see your business listed on this page?

 If your business provides an interesting product or service to pilots, flight crews, aircraft, or users of the Cook Airfield, you should consider listing it here.  To start the listing process, click on the button below
 
Add a business
 

Other Pages about Cook Airfield

cookairfield.com
 
Update a link
 
Copyright © AirNav, LLC. All rights reserved. Privacy Policy  Contact